Weather History for KCOD - August, 2012

Change the Weather History Date:

Friday, August 17, 2012

  Actual Average Record
Temperature  
Mean Temperature 64 °F -  
Max Temperature 78 °F 82 °F 98 °F (1934)
Min Temperature 51 °F 53 °F 38 °F (1944)
Growing Degree Days 14 (Base 50)    
Moisture  
Dew Point 41 °F    
Average Humidity 42    
Maximum Humidity 71    
Minimum Humidity 21    
Precipitation  
Precipitation 0.00 in - - ()
Sea Level Pressure  
Sea Level Pressure 30.16 in    
Wind  
Wind Speed 4 mph (North)    
Max Wind Speed 14 mph    
Max Gust Speed 20 mph    
Visibility 10 miles    
Events      
Averages and records for this station are not official NWS values.
T = Trace of Precipitation, MM = Missing Value Source: NWS Daily Summary

Daily Weather History Graph

Daily Weather History Graph

Search for Another Location

Airport or City:

Trip Planner

Search our weather history database for the weather conditions in past years. The results will help you decide how hot, cold, wet, or windy it might be!

Date:

Astronomy

Aug. 17, 2012 Rise Set
Actual Time 6:21 AM MDT 8:17 PM MDT
Civil Twilight 5:50 AM MDT 8:48 PM MDT
Nautical Twilight 5:11 AM MDT 9:26 PM MDT
Astronomical Twilight 4:29 AM MDT 10:08 PM MDT
Moon 6:30 AM MDT (8/17) 7:58 PM MDT (8/17)
Length of Visible Light 14h 58m
Length of Day
13h 55m
New Moon, 0% of the Moon is Illuminated
Aug 17
New Moon
Aug 24
First Quarter
Aug 31
Full
Sep 8
Last Quarter
Sep 15
New

Hourly Weather History & Observations

Time (MDT) Temp. Dew Point Humidity Pressure Visibility Wind Dir Wind Speed Gust Speed Precip Events Conditions
12:15 AM 59.0 °F 42.8 °F 55% 30.16 in 10.0 mi Calm Calm - N/A   Clear
12:35 AM 59.0 °F 42.8 °F 55% 30.16 in 10.0 mi Calm Calm - N/A   Clear
12:55 AM 57.2 °F 44.6 °F 63% 30.16 in 10.0 mi SW 3.5 mph - N/A   Clear
1:15 AM 57.2 °F 44.6 °F 63% 30.16 in 10.0 mi Calm Calm - N/A   Clear
1:35 AM 57.2 °F 44.6 °F 63% 30.16 in 10.0 mi SW 3.5 mph - N/A   Clear
1:55 AM 55.4 °F 44.6 °F 67% 30.16 in 10.0 mi Calm Calm - N/A   Clear
2:15 AM 55.4 °F 44.6 °F 67% 30.15 in 10.0 mi WSW 3.5 mph - N/A   Clear
2:35 AM 55.4 °F 44.6 °F 67% 30.15 in 10.0 mi South 5.8 mph - N/A   Clear
2:55 AM 55.4 °F 42.8 °F 63% 30.15 in 10.0 mi Calm Calm - N/A   Clear
3:15 AM 51.8 °F 39.2 °F 62% 30.15 in 10.0 mi Calm Calm - N/A   Clear
3:35 AM 57.2 °F 42.8 °F 59% 30.15 in 10.0 mi South 4.6 mph - N/A   Clear
4:15 AM 55.4 °F 42.8 °F 63% 30.15 in 10.0 mi South 8.1 mph - N/A   Clear
4:35 AM 55.4 °F 42.8 °F 63% 30.15 in 10.0 mi SSW 5.8 mph - N/A   Clear
4:55 AM 55.4 °F 44.6 °F 67% 30.15 in 10.0 mi SW 6.9 mph - N/A   Clear
5:35 AM 51.8 °F 42.8 °F 71% 30.16 in 10.0 mi Calm Calm - N/A   Clear
5:55 AM 51.8 °F 42.8 °F 71% 30.16 in 10.0 mi Calm Calm - N/A   Clear
6:15 AM 51.8 °F 41.0 °F 67% 30.16 in 10.0 mi South 4.6 mph - N/A   Clear
6:35 AM 51.8 °F 42.8 °F 71% 30.16 in 10.0 mi SSE 4.6 mph - N/A   Clear
6:55 AM 53.6 °F 42.8 °F 67% 30.16 in 10.0 mi South 4.6 mph - N/A   Clear
7:15 AM 55.4 °F 44.6 °F 67% 30.16 in 10.0 mi SSW 4.6 mph - N/A   Clear
7:35 AM 57.2 °F 44.6 °F 63% 30.16 in 10.0 mi SSW 6.9 mph - N/A   Clear
8:15 AM 60.8 °F 44.6 °F 55% 30.17 in 10.0 mi SW 4.6 mph - N/A   Clear
8:35 AM 60.8 °F 48.2 °F 63% 30.17 in 10.0 mi Calm Calm - N/A   Clear
8:55 AM 64.4 °F 44.6 °F 49% 30.17 in 10.0 mi WSW 3.5 mph - N/A   Clear
9:15 AM 66.2 °F 44.6 °F 46% 30.17 in 10.0 mi Calm Calm - N/A   Clear
9:35 AM 66.2 °F 44.6 °F 46% 30.17 in 10.0 mi Calm Calm - N/A   Clear
10:15 AM 69.8 °F 44.6 °F 40% 30.17 in 10.0 mi Calm Calm - N/A   Clear
10:35 AM 71.6 °F 44.6 °F 38% 30.17 in 10.0 mi North 4.6 mph - N/A   Clear
10:55 AM 71.6 °F 44.6 °F 38% 30.16 in 10.0 mi NE 6.9 mph - N/A   Clear
11:15 AM 73.4 °F 46.4 °F 38% 30.17 in 10.0 mi NNE 6.9 mph - N/A   Clear
11:35 AM 73.4 °F 44.6 °F 36% 30.16 in 10.0 mi NNE 8.1 mph - N/A   Clear
11:55 AM 73.4 °F 44.6 °F 36% 30.16 in 10.0 mi NNE 10.4 mph - N/A   Clear
12:15 PM 73.4 °F 44.6 °F 36% 30.16 in 10.0 mi North 10.4 mph - N/A   Clear
12:35 PM 73.4 °F 42.8 °F 33% 30.16 in 10.0 mi NNE 10.4 mph 18.4 mph N/A   Clear
12:55 PM 73.4 °F 44.6 °F 36% 30.16 in 10.0 mi NNE 10.4 mph - N/A   Clear
1:15 PM 75.2 °F 44.6 °F 34% 30.16 in 10.0 mi NNE 10.4 mph 16.1 mph N/A   Clear
1:35 PM 75.2 °F 42.8 °F 31% 30.15 in 10.0 mi NNE 9.2 mph - N/A   Clear
1:55 PM 75.2 °F 42.8 °F 31% 30.15 in 10.0 mi North 9.2 mph - N/A   Clear
2:15 PM 75.2 °F 44.6 °F 34% 30.15 in 10.0 mi NNE 11.5 mph 18.4 mph N/A   Clear
2:35 PM 77.0 °F 42.8 °F 29% 30.14 in 10.0 mi NNE 6.9 mph - N/A   Clear
2:55 PM 78.8 °F 42.8 °F 28% 30.14 in 10.0 mi NE 9.2 mph - N/A   Clear
3:15 PM 78.8 °F 42.8 °F 28% 30.14 in 10.0 mi NE 11.5 mph 19.6 mph N/A   Clear
3:35 PM 78.8 °F 44.6 °F 30% 30.14 in 10.0 mi North 10.4 mph - N/A   Clear
3:55 PM 78.8 °F 44.6 °F 30% 30.13 in 10.0 mi NNE 10.4 mph - N/A   Clear
4:15 PM 78.8 °F 46.4 °F 32% 30.13 in 10.0 mi North 9.2 mph 18.4 mph N/A   Clear
4:35 PM 78.8 °F 42.8 °F 28% 30.13 in 10.0 mi NNE 13.8 mph - N/A   Clear
4:55 PM 77.0 °F 42.8 °F 29% 30.13 in 10.0 mi North 11.5 mph 16.1 mph N/A   Clear
5:15 PM 78.8 °F 39.2 °F 24% 30.13 in 10.0 mi NE 12.7 mph 17.3 mph N/A   Clear
5:35 PM 77.0 °F 39.2 °F 26% 30.13 in 10.0 mi NNE 12.7 mph 17.3 mph N/A   Clear
5:55 PM 78.8 °F 37.4 °F 23% 30.13 in 10.0 mi NNE 10.4 mph - N/A   Clear
6:15 PM 77.0 °F 35.6 °F 22% 30.13 in 10.0 mi NNE 9.2 mph 17.3 mph N/A   Clear
6:35 PM 75.2 °F 35.6 °F 24% 30.13 in 10.0 mi North 10.4 mph - N/A   Clear
6:55 PM 75.2 °F 35.6 °F 24% 30.13 in 10.0 mi NNE 10.4 mph - N/A   Clear
7:16 PM 75.2 °F 35.6 °F 24% 30.13 in 10.0 mi NNE 9.2 mph - N/A   Clear
7:35 PM 73.4 °F 33.8 °F 23% 30.14 in 10.0 mi NNE 8.1 mph - N/A   Clear
8:15 PM 71.6 °F 30.2 °F 22% 30.15 in 10.0 mi North 8.1 mph - N/A   Clear
8:35 PM 69.8 °F 28.4 °F 21% 30.15 in 10.0 mi NW 5.8 mph - N/A   Clear
8:55 PM 68.0 °F 28.4 °F 23% 30.17 in 10.0 mi Calm Calm - N/A   Clear
9:15 PM 66.2 °F 26.6 °F 23% 30.17 in 10.0 mi NW 3.5 mph - N/A   Clear
9:35 PM - - N/A% 30.17 in 10.0 mi NNW 3.5 mph - N/A   Clear
9:55 PM - - N/A% 30.18 in 10.0 mi NNW 4.6 mph - N/A   Clear
10:15 PM 64.4 °F 26.6 °F 24% 30.20 in 10.0 mi NNW 4.6 mph - N/A   Clear
10:35 PM 64.4 °F 26.6 °F 24% 30.20 in 10.0 mi NNE 3.5 mph - N/A   Clear
10:55 PM 64.4 °F 26.6 °F 24% 30.21 in 10.0 mi Calm Calm - N/A   Clear
11:15 PM 62.6 °F 26.6 °F 26% 30.21 in 10.0 mi Calm Calm - N/A   Clear
11:55 PM 60.8 °F 26.6 °F 27% 30.21 in 10.0 mi Calm Calm - N/A   Clear